www.pogodaiklimat.ru

Погода и климат >> Архив погоды >> Россия >> Якутия >> Шелагонцы


ПОГОДА в Шелагонцах

  • Прогноз погоды в Шелагонцах
  • Монитор погоды в Шелагонцах
  • Климат города

АРХИВ ПОГОДЫ в Шелагонцах

Время (UTC), дата Ветер
(напр.,м/с)
 
Видим.   Явления Облачность Т
(С)
Тd
(С)
f
(%)
Тe
(С)
Тes
(С)
Комфортность P
(гПа)
Po
(гПа)
Тmin
(С)
Tmax
(С)
R
(мм)
R24
(мм)
S
(см)
00 18.05 В 5 50 км 10/0
[As op]
+3.2 -5.5 53 -1 -1 1005.7 976.9 +3.1 4
03 18.05 В 9-10
{12}
50 км 9/8 600 м
[Sc Cc]
+5.9 -3.8 50 +1 +1 1004.2 975.7
06 18.05 В 7-10
{12}
50 км 8/0
[As trans Cs]
+7.2 -5.4 40 +3 +5 1002.9 974.6
09 18.05 В 5
{12}
50 км 10/6 600 м
[Sc Cs]
+7.0 -7.5 35 +4 +5 1002.6 974.2
12 18.05 В 9-10
{14}
20 км слабый дождь 10/0 600 м
[As op]
+5.7 -4.9 46 +1 +1 1003.1 974.6 +7.9 0.0
15 18.05 В 5
{14}
20 км слабый дождь 10/0 600 м
[As op]
+3.6 -1.7 68 -1 -1 1002.7 974.0
21 18.05 СВ 1 500 м дождь со снегом 10/0
[As op]
+0.4 -0.2 96 -2 -2 1001.7 972.8
00 19.05 СВ 1 4000 м дождь со снегом {морось} 10/10 300 м
[St]
+0.8 +0.3 96 -1 -1 1001.7 982.8 +0.3 1 3
03 19.05 СВ 3 50 км {снег, морось} 10/10 600 м
[Sc]
+1.7 -1.4 80 -3 -3 1002.1 973.3
06 19.05 С 5 50 км {снег, морось} 10/10 600 м
[Sc]
+2.0 -1.4 78 -3 -3 1003.4 974.6
09 19.05 З 5 50 км 10/10 600 м
[Cb cap]
+3.0 -1.5 72 -2 -2 1004.3 975.6
12 19.05 С 3 50 км {ливн. осадки} 10/9 600 м
[Frnb As op]
+1.9 -2.1 75 -2 -2 1006.6 977.6 +4.2 0.0
15 19.05 СЗ 3 20 км слабая крупа {ливн. осадки} 10/10 600 м
[Cb cap]
+0.8 -1.5 85 -4 -4 1007.8 978.7
18 19.05 З 3 10 км ливневой снег 10/10 600 м
[Cb cap]
-0.1 -0.1 100 -5 -5 1009.2 980.0
21 19.05 СЗ 4 50 км {ливн. осадки} 9/5 600 м
[Cb cap Ac cuf]
+0.1 -2.6 82 -5 -5 1011.2 982.0
00 20.05 СЗ 4 50 км {ливн. осадки} 6/5 600 м
[Cu med, cong Ci fib]
+1.2 -1.7 81 -4 -2 1012.9 983.7 -0.6 0.0 0
03 20.05 СЗ 4 50 км ясно +3.2 -9.1 40 -1 +6 1014.2 985.2
06 20.05 СЗ 6 50 км ясно +4.8 -13.4 25 +1 +5 1015.4 986.4
09 20.05 З 6 50 км 1/0
[Ci fib]
+6.8 -12.5 24 +3 +5 1016.4 987.6
12 20.05 СЗ 3 50 км 1/1 1000 м
[Cu hum]
+7.6 -5.5 39 +6 +6 1017.5 988.8 +8.0
15 20.05 штиль 0 50 км 10/0
[Ac cast Ci fib]
0.0 -3.4 78 -1 -1 1019.0 989.5
18 20.05 штиль 0 50 км 8/0
[Ci fib]
-4.4 -6.7 84 -5 -5 1020.5 990.5
21 20.05 штиль 0 50 км 6/0
[Ci fib]
-3.2 -5.3 85 -4 -3 1020.4 990.5
00 21.05 С 1 50 км 6/0
[Ac trans Ci fib]
+3.6 -5.7 51 +3 +7 1019.6 990.4 -3.6 <0.5
03 21.05 З 3 50 км 3/1 600 м
[Cu hum Ci fib]
+9.4 -6.7 31 +8 +15 1017.7 989.2
06 21.05 З 3 50 км 1/0
[Ci fib]
+10.5 -8.5 25 +9 +17 1015.8 987.5
09 21.05 З 5 50 км 3/0
[Cs]
+11.0 -7.9 26 +9 +11 1014.0 985.7
12 21.05 З 3 50 км 3/0
[Cs]
+10.2 -4.7 35 +9 +9 1012.6 984.3 +11.8
15 21.05 З 1 50 км 4/0
[Cs]
+2.4 -3.2 66 +1 +1 1012.3 983.2
18 21.05 штиль 0 50 км 3/0
[Cs]
-5.2 -8.1 80 -6 -6 1011.8 981.9
21 21.05 штиль 0 50 км 1/0
[Ci sp]
-2.4 -6.0 76 -3 -2 1010.2 980.7
00 22.05 штиль 0 50 км 3/0
[Ci sp]
+7.0 -2.2 52 +7 +13 1007.6 979.2 -6.6 0
03 22.05 ЮВ 5 50 км 4/0
[Ci sp]
+10.6 -8.2 26 +8 +13 1005.1 977.0
06 22.05 Ю 5 50 км 9/0
[Cs]
+11.9 -7.9 24 +10 +14 1003.2 975.3
09 22.05 ЮВ 4 50 км 10/0
[Cs]
+12.3 -9.8 20 +11 +14 1001.1 973.4
12 22.05 В 3 50 км 10/0
[Cc]
+10.9 -7.1 28 +10 +10 1001.0 973.1 +12.7
15 22.05 В 1 50 км 10/0
[As op]
+4.4 -3.4 57 +4 +4 1001.1 972.6
18 22.05 В 3 50 км 10/0
[As op]
+7.0 -5.3 41 +5 +5 999.5 971.3
21 22.05 В 1 50 км 10/0
[As op]
+5.8 -3.6 51 +5 +5 999.0 970.6
00 23.05 С 1 20 км слабый дождь 10/0 600 м
[As op]
+4.0 +1.4 83 +3 +4 998.2 969.8 +3.0 0.5 0
03 23.05 В 3 50 км в посл. час дождь 10/10 600 м
[Sc]
+5.0 +2.8 86 +2 +2 996.5 968.2
06 23.05 штиль 0 50 км в посл. час дождь 10/10 600 м
[Sc As op]
+5.0 +3.3 89 +4 +4 995.2 967.0
09 23.05 В 3 50 км 8/3 600 м
[Sc Ci fib]
+14.2 -1.2 35 +14 +16 994.1 966.7
12 23.05 В 3 50 км 9/9 600 м
[Sc]
+13.5 -0.2 39 +13 +13 995.0 967.5 +16.1 1
15 23.05 ЮВ 1 50 км 1/1 1000 м
[Sc]
+6.1 +1.1 70 +5 +5 996.5 968.3
18 23.05 штиль 0 50 км ясно +2.0 -1.7 76 +1 +1 998.8 970.2
21 23.05 штиль 0 50 км 3/0
[Cs]
+0.8 -0.9 88 -0 +1 999.7 970.8
00 24.05 штиль 0 50 км 6/0
[Ac cast]
+5.6 -0.1 67 +5 +9 998.6 970.3 -0.3 0
03 24.05 В 5 50 км 6/0
[Ac cast]
+14.6 +2.8 45 +13 +16 996.7 969.4
06 24.05 ЮЗ 5 50 км 8/8 600 м
[Sc Cc]
+17.0 +3.4 40 +16 +17 997.4 970.3
09 24.05 Ю 3 50 км 4/4 600 м
[Cu med, cong]
+19.2 +1.3 30 +20 +22 997.5 970.5
12 24.05 Ю 3 50 км ясно +18.4 -4.8 20 +19 +19 998.7 971.6 +19.8
15 24.05 СЗ 3 50 км ясно +11.0 +0.9 50 +10 +10 1002.2 974.3
18 24.05 штиль 0 50 км ясно +3.5 +1.3 85 +2 +2 1004.2 975.5
21 24.05 ЮЗ 3 50 км 6/0
[As op Cc]
+5.0 -0.3 69 +2 +2 1004.7 976.6

 

Местоположение метеостанции Шелагонцы (Якутия, Россия): широта 66.25 долгота 114.20 высота над уровнем моря 236 м.

В архиве по умолчанию представлена погода в Шелагонцах за последнюю неделю. Архивные данные за месяц целиком и за предыдущие месяцы, начиная с января 2011 года, Вы можете получить, выбрав интересующий диапазон дат из раскрывающегося списка и нажав кнопку "Ввод!".


*Определитесь, кто Вы:
робот инопланетянин человек

Внимание! Время в таблицах - всемирное. Для получения местного времени необходимо прибавить поправку, которая в Шелагонцах равна 9 ч.

Смотрите также архив погоды в соседних городах и на ближайших метеорологических станциях:

Погода в Полярном (Якутия, Россия) (96 км)
Погода в Айхале (Якутия, Россия) (129 км)
Погода в Эйке (Якутия, Россия) (146 км)
Погода в Хабардино (Якутия, Россия) (200 км)
Погода в Чумпуруке (Якутия, Россия) (257 км)
Погода в Оленеке (Якутия, Россия) (262 км)
Погода в Ярольине (Якутия, Россия) (269 км)
Погода в Сухане (Якутия, Россия) (316 км)
Погода в Чернышевском (Якутия, Россия) (368 км)
Погода в Нюрбе (Якутия, Россия) (383 км)

Пояснения к столбцам:

Ветер - указаны скорость ветра в м/с - средняя за 10 мин, порывы в срок и между сроками (в фигурных скобках) и направление, откуда дует ветер: С - северный, СВ - северо-восточный, В - восточный, ЮВ - юго-восточный, Ю - южный, ЮЗ - юго-западный, З - западный, СЗ - северо-западный.
Видимость - горизонтальная дальность видимости в метрах или километрах. При видимости от 1 до 10 км при отсутствии осадков обычно наблюдается дымка, при ухудшении видимости до 1 км и менее - туман. В сухую погоду видимость может ухудшаться дымом, пылью или мглою.
Явления - указаны атмосферные явления, наблюдавшиеся в срок или в последний час перед сроком; фигурными скобками обозначены явления, наблюдавшиеся между сроками (за 1-3 часа до срока); квадратными скобками обозначены град или гололедные отложения с указанием их диаметра в мм.
Облачность - указаны через наклонную черту общая и нижняя облачность в баллах и высота нижней границы облаков в метрах; квадратными скобками обозначены формы облаков: Ci - перистые, Cs - перисто-слоистые, Cc - перисто-кучевые, Ac - высококучевые, As - высокослоистые, Sc - слоисто-кучевые, Ns - слоисто-дождевые, Cu - кучевые, Cb - кучево-дождевые. Подробнее классификацию облаков см. в Атласе облаков (PDF).
T - Температура воздуха - температура, измеренная на высоте 2 м над землей.
Td - Температура точки росы - температура, при понижении до которой содержащийся в воздухе водяной пар достигнет насыщения.
f - Относительная влажность воздуха - влажноcть воздуха, измеренная на высоте 2 м над землей.
Te - Эффективная температура - температура, которую ощущает одетый по сезону человек в тени. Характеристика душности погоды. При расчете учитывается влияние влажности воздуха и скорости ветра на теплоощущения человека.
Tes - Эффективная температура на солнце - температура, которую ощущает человек, с поправкой на солнечный нагрев. Характеристика знойности погоды. Зависит от высоты солнца над горизонтом, облачности и скорости ветра. Ночью, в пасмурную погоду, а также при ветре 12 м/с и более поправка равна нулю.
P - Атмосферное давление - приведенное к уровню моря атмосферное давление.
Po - Атмосферное давление - измеренное на уровне метеостанции атмосферное давление.
Tmin - Минимальная температура - минимум температуры воздуха на высоте 2 м над землей.
Tmax - Максимальная температура - максимум температуры воздуха на высоте 2 м над землей.
R - Количество осадков - Количество выпавших осадков за период времени, мм. При наведении курсора мыши на число - период времени, за который выпало указанное количество осадков.
R24 - Количество осадков - Количество выпавших осадков за 24 часа, мм.
S - Снежный покров - Высота снежного покрова, см. При наведении курсора мыши на число - состояние снежного покрова и степень покрытия местности в баллах.